Regional Weather Roundup
Issued by NWS

Home | Current Version | Previous Version | Text Only | Print | Product List | Glossary On
Versions: 1 2 3 4 5 6 7 8 9 10 11 12 13 14 15 16 17 18 19 20 21 22 23 24 25 26 27 28 29 30 31 32 33 34 35 36 37 38 39 40 41 42 43 44 45 46 47 48 49 50
000
ASUS43 KLSX 231807
RWRMO

WEATHER SUMMARY FOR MISSOURI
NATIONAL WEATHER SERVICE SPRINGFIELD MO
100 PM CDT THU OCT 23 2014

NOTE: "FAIR" INDICATES FEW OR NO CLOUDS BELOW 12,000 FEET WITH NO
       SIGNIFICANT WEATHER AND/OR OBSTRUCTIONS TO VISIBILITY.
       CURRENT SKY AND/OR WEATHER CONDITIONS ARE NOT AVAILABLE FOR
       CHILLICOTHE AND FARMINGTON.

MOZ001>031-035>038-043-044-053-054-231900-
...NORTHERN AND WESTERN MISSOURI...

CITY           SKY/WX    TMP DP  RH WIND       PRES   REMARKS
KANSAS CTY INT DRIZZLE   63  61  93 SW8       30.09F FOG
6HR MIN TEMP:  55; 6HR MAX TEMP:  64; 6HR PCP:  0.01;

KANSAS C DTWN  CLOUDY    65  59  81 SW8       30.09F
6HR MIN TEMP:  58; 6HR MAX TEMP:  66; 6HR PCP: TRACE;

LEE`S SUMMIT   CLOUDY    64  59  83 SW9       30.11F
6HR MIN TEMP:  56; 6HR MAX TEMP:  64; 6HR PCP: TRACE;

ST JOSEPH      CLOUDY    66  61  84 SW8       30.08F
6HR MIN TEMP:  52; 6HR MAX TEMP:  66;

CHILLICOTHE      N/A     64  57  78 S10       30.10F
6HR MIN TEMP:  54; 6HR MAX TEMP:  64;

KIRKSVILLE     CLOUDY    65  55  70 S12       30.10F
6HR MIN TEMP:  51; 6HR MAX TEMP:  66;


$$
MOZ066>068-077>081-088>096-101>105-231900-
...SOUTHWEST MISSOURI...

CITY           SKY/WX    TMP DP  RH WIND       PRES   REMARKS
SPRINGFIELD    CLOUDY    58  51  78 S9        30.15F
6HR MIN TEMP:  53; 6HR MAX TEMP:  58; 6HR PCP:  0.01;

JOPLIN         CLOUDY    58  57  97 S9        30.16F
6HR MIN TEMP:  57; 6HR MAX TEMP:  58; 6HR PCP:  0.01;


$$
MOZ032>034-039>042-045>050-055>058-069>072-231900-
...CENTRAL MISSOURI...

CITY           SKY/WX    TMP DP  RH WIND       PRES   REMARKS
COLUMBIA       CLOUDY    57  48  72 S7        30.15F
6HR MIN TEMP:  47; 6HR MAX TEMP:  58;

JEFFERSON CITY CLOUDY    59  46  62 S6        30.15F
6HR MIN TEMP:  46; 6HR MAX TEMP:  60;

ROLLA          CLOUDY    60  46  59 S13       30.15F
6HR MIN TEMP:  45; 6HR MAX TEMP:  60;

SEDALIA        CLOUDY    66  54  65 SW12      30.14F
6HR MIN TEMP:  54; 6HR MAX TEMP:  66;

WHITEMAN AFB   PTSUNNY   64  57  78 SW10      30.12F
OSAGE BEACH    CLOUDY    61  48  63 S6        30.16F

$$
MOZ051-052-059>065-231900-
...EAST CENTRAL MISSOURI...

CITY           SKY/WX    TMP DP  RH WIND       PRES   REMARKS
ST LOUIS INTL  CLOUDY    62  43  49 S7        30.18F
6HR MIN TEMP:  46; 6HR MAX TEMP:  62;

SPIRIT OF STL  CLOUDY    62  44  51 S7        30.16F
6HR MIN TEMP:  37; 6HR MAX TEMP:  62;

ST CHARLES     CLOUDY    60  44  55 S10       30.16F
6HR MIN TEMP:  39; 6HR MAX TEMP:  61;


$$
MOZ072>076-082>087-097>100-106>115-231900-
...SOUTH CENTRAL AND SOUTHEAST MISSOURI...

CITY           SKY/WX    TMP DP  RH WIND       PRES   REMARKS
CAPE GIRARDEAU CLOUDY    57  43  59 SW3       30.20F
6HR MIN TEMP:  33; 6HR MAX TEMP:  58; 6HR PCP: TRACE;

FARMINGTON     CLOUDY    61  43  51 S7        30.20F
6HR MIN TEMP:  34; 6HR MAX TEMP:  61;

POPLAR BLUFF   CLOUDY    55  45  68 CALM      30.21F HAZE
6HR MIN TEMP:  38; 6HR MAX TEMP:  56;

WEST PLAINS    CLOUDY    56  44  64 S5        30.19F
6HR MIN TEMP:  40; 6HR MAX TEMP:  56;


$$



USA.gov is the U.S. government's official web portal to all federal, state and local government web resources and services.